EW3511 Weather Reports


Display with metric or nautical units.
time (UTC)temp
F
wind
direction
speed
MPH
gust
MPH
rain 1hr
in
rain 24hr
in
rain mn
in
humidity
%
barometer
mb
20260904080608 76 211 3.0 7.0 0.00 0.00 0.00 54 1020.6
20260904075610 76 183 2.0 7.0 0.00 0.00 0.00 55 1020.5
20260904074629 75 216 2.0 6.0 0.00 0.00 0.00 57 1020.7
20260904073558 75 126 2.0 7.0 0.00 0.00 0.00 58 1020.6
20260904072538 74 175 2.0 7.0 0.00 0.00 0.00 59 1020.6
20260904071539 74 173 2.0 5.0 0.00 0.00 0.00 58 1020.6
20260904070539 73 117 1.0 3.0 0.00 0.00 0.00 60 1020.7
20260904065539 74 109 1.0 2.0 0.00 0.00 0.00 60 1020.7
20260904064541 74 138 1.0 3.0 0.00 0.00 0.00 59 1020.7
20260904063543 72 134 1.0 3.0 0.00 0.00 0.00 61 1020.7
20260904062541 72 114 0.0 2.0 0.00 0.00 0.00 59 1020.7
20260904061541 71 156 2.0 3.0 0.00 0.00 0.00 62 1020.9
20260904060541 70 116 1.0 3.0 0.00 0.00 0.00 63 1020.9
20260904055542 69 102 0.0 3.0 0.00 0.00 0.00 64 1020.8
20260904054542 69 189 2.0 5.0 0.00 0.00 0.00 63 1020.9
20260904053542 68 154 1.0 3.0 0.00 0.00 0.00 64 1020.8
20260904052543 68 165 1.0 3.0 0.00 0.00 0.00 64 1020.9
20260904051544 67 132 1.0 3.0 0.00 0.00 0.00 66 1020.9
20260904050604 66 102 0.0 2.0 0.00 0.00 0.00 68 1020.8
20260904045544 66 109 0.0 2.0 0.00 0.00 0.00 67 1020.7
20260904044544 67 141 0.0 1.0 0.00 0.00 0.00 66 1020.9
20260904043545 67 157 1.0 2.0 0.00 0.00 0.00 65 1020.8
20260904042605 67 113 0.0 3.0 0.00 0.00 0.00 66 1020.7
20260904041545 67 112 0.0 1.0 0.00 0.00 0.00 65 1020.8
20260904040606 67 102 0.0 1.0 0.00 0.00 0.00 65 1021.0
20260904035547 67 102 0.0 1.0 0.00 0.00 0.00 64 1021.0
20260904034607 67 98 0.0 2.0 0.00 0.00 0.00 64 1021.1
20260904033548 67 96 0.0 1.0 0.00 0.00 0.00 64 1020.9
20260904032548 68 125 0.0 2.0 0.00 0.00 0.00 64 1021.1
20260904031550 68 150 1.0 3.0 0.00 0.00 0.00 63 1021.0
20260904030550 68 119 0.0 3.0 0.00 0.00 0.00 63 1021.0
20260904025549 68 187 1.0 5.0 0.00 0.00 0.00 64 1021.1
20260904024550 68 80 1.0 3.0 0.00 0.00 0.00 63 1021.2
20260904023550 69 151 1.0 3.0 0.00 0.00 0.00 62 1021.3
20260904022551 69 195 1.0 5.0 0.00 0.00 0.00 62 1021.2
20260904021632 69 177 1.0 3.0 0.00 0.00 0.00 62 1021.2
20260904020551 69 160 2.0 5.0 0.00 0.00 0.00 62 1021.3
20260904015552 69 139 1.0 3.0 0.00 0.00 0.00 62 1021.4
20260904014552 69 135 1.0 5.0 0.00 0.00 0.00 62 1021.4
20260904013552 69 141 1.0 3.0 0.00 0.00 0.00 63 1021.4
20260904012553 68 144 1.0 3.0 0.00 0.00 0.00 65 1021.5
20260904011554 68 0.0 0.0 0.00 0.00 0.00 66 1021.6
20260904010554 69 117 0.0 3.0 0.00 0.00 0.00 65 1021.5
20260904005554 69 139 0.0 2.0 0.00 0.00 0.00 64 1021.6
20260904004554 69 138 1.0 2.0 0.00 0.00 0.00 64 1021.7
20260904003556 68 122 0.0 2.0 0.00 0.00 0.00 66 1021.6
20260904002557 69 107 1.0 2.0 0.00 0.00 0.00 66 1021.6
20260904001556 69 100 0.0 1.0 0.00 0.00 0.00 65 1021.8
20260904000556 69 118 1.0 3.0 0.00 0.00 0.00 66 1021.8
20260903235557 69 147 0.0 2.0 0.00 0.00 0.00 65 1022.0
20260903234637 69 127 1.0 3.0 0.00 0.00 0.00 65 1022.0
20260903233557 69 145 1.0 3.0 0.00 0.00 0.00 66 1022.0
20260903232558 69 168 1.0 3.0 0.00 0.00 0.00 67 1022.0
20260903231558 68 125 1.0 2.0 0.00 0.00 0.00 69 1022.1
20260903230559 69 118 0.0 1.0 0.00 0.00 0.00 68 1022.2
20260903225639 69 128 1.0 2.0 0.00 0.00 0.00 65 1022.2
20260903224600 69 144 1.0 3.0 0.00 0.00 0.00 65 1022.4
20260903223621 69 100 0.0 3.0 0.00 0.00 0.00 65 1022.4
20260903222621 70 155 1.0 5.0 0.00 0.00 0.00 65 1022.4
20260903221621 69 151 0.0 2.0 0.00 0.00 0.00 64 1022.4
20260903220601 70 122 1.0 2.0 0.00 0.00 0.00 64 1022.4
20260903215602 70 220 1.0 5.0 0.00 0.00 0.00 64 1022.3
20260903214603 70 153 1.0 3.0 0.00 0.00 0.00 63 1022.1
20260903213602 70 174 1.0 3.0 0.00 0.00 0.00 63 1021.9
20260903212603 70 117 0.0 2.0 0.00 0.00 0.00 64 1021.9
20260903211603 70 226 1.0 3.0 0.00 0.00 0.00 64 1021.8
20260903210604 69 131 1.0 5.0 0.00 0.00 0.00 64 1022.1
20260903205605 69 145 0.0 2.0 0.00 0.00 0.00 65 1022.1
20260903204620 69 102 1.0 2.0 0.00 0.00 0.00 65 1022.1
20260903203558 69 105 0.0 2.0 0.00 0.00 0.00 65 1022.0
20260903202538 69 102 0.0 1.0 0.00 0.00 0.00 65 1022.0
20260903201538 69 157 0.0 2.0 0.00 0.00 0.00 66 1021.8
20260903200538 69 74 0.0 1.0 0.00 0.00 0.00 66 1021.8
20260903195539 70 0.0 0.0 0.00 0.00 0.00 63 1021.7
20260903194540 70 112 1.0 2.0 0.00 0.00 0.00 63 1021.5
20260903193540 70 98 0.0 2.0 0.00 0.00 0.00 63 1021.5
20260903192540 69 117 0.0 2.0 0.00 0.00 0.00 65 1021.5
20260903191541 69 108 0.0 1.0 0.00 0.00 0.00 66 1021.5
20260903190541 70 121 0.0 2.0 0.00 0.00 0.00 65 1021.4
20260903185542 70 0.0 0.0 0.00 0.00 0.00 63 1021.3
20260903184541 71 122 0.0 2.0 0.00 0.00 0.00 61 1021.3
20260903183622 71 111 0.0 1.0 0.00 0.00 0.00 62 1021.2
20260903182542 71 0.0 0.0 0.00 0.00 0.00 63 1021.1
20260903181544 72 110 0.0 1.0 0.00 0.00 0.00 61 1021.1
20260903180543 72 123 0.0 1.0 0.00 0.00 0.00 59 1021.0
20260903175544 72 188 0.0 2.0 0.00 0.00 0.00 60 1020.9
20260903174544 72 0.0 0.0 0.00 0.00 0.00 59 1020.9
20260903173544 73 111 0.0 3.0 0.00 0.00 0.00 58 1020.9
20260903172545 73 161 1.0 2.0 0.00 0.00 0.00 57 1020.8
20260903171545 74 133 0.0 2.0 0.00 0.00 0.00 57 1020.9
20260903170546 74 127 1.0 2.0 0.00 0.00 0.00 56 1020.8
20260903165546 74 143 1.0 3.0 0.00 0.00 0.00 56 1020.8
20260903164547 75 138 1.0 6.0 0.00 0.00 0.00 55 1020.7
20260903163547 75 179 2.0 6.0 0.00 0.00 0.00 54 1020.8
20260903162548 76 134 2.0 5.0 0.00 0.00 0.00 54 1020.7
20260903161628 76 14 2.0 6.0 0.00 0.00 0.00 54 1020.7
20260903160549 77 194 2.0 6.0 0.00 0.00 0.00 53 1020.7
20260903155549 77 206 2.0 5.0 0.00 0.00 0.00 52 1020.6
20260903154549 77 187 2.0 8.0 0.00 0.00 0.00 52 1020.7
20260903153549 77 190 2.0 6.0 0.00 0.00 0.00 50 1020.6
20260903152550 77 69 1.0 3.0 0.00 0.00 0.00 53 1020.7
20260903151550 78 6 1.0 5.0 0.00 0.00 0.00 52 1020.7
20260903150551 78 176 2.0 6.0 0.00 0.00 0.00 50 1020.7
20260903145611 78 60 2.0 5.0 0.00 0.00 0.00 50 1020.7
20260903144551 77 196 2.0 8.0 0.00 0.00 0.00 51 1020.8
20260903143552 77 328 2.0 9.0 0.00 0.00 0.00 50 1020.9
20260903142552 77 309 2.0 9.0 0.00 0.00 0.00 51 1021.0
20260903141556 77 47 2.0 8.0 0.00 0.00 0.00 51 1021.0
20260903140553 78 51 1.0 3.0 0.00 0.00 0.00 52 1021.0
20260903135553 78 8 2.0 10.0 0.00 0.00 0.00 51 1021.0
20260903134556 79 329 2.0 7.0 0.00 0.00 0.00 50 1021.0
20260903133554 79 39 2.0 8.0 0.00 0.00 0.00 51 1020.9
20260903132635 78 352 2.0 5.0 0.00 0.00 0.00 53 1021.1
20260903131615 77 95 1.0 5.0 0.00 0.00 0.00 54 1021.0
20260903130616 77 290 2.0 9.0 0.00 0.00 0.00 52 1021.2
20260903125556 78 189 2.0 6.0 0.00 0.00 0.00 52 1021.2
20260903124557 78 39 2.0 7.0 0.00 0.00 0.00 53 1021.2
20260903123557 77 40 3.0 7.0 0.00 0.00 0.00 53 1021.4
20260903122617 77 237 2.0 7.0 0.00 0.00 0.00 52 1021.6
20260903121558 77 114 2.0 6.0 0.00 0.00 0.00 53 1021.6
20260903120558 77 140 2.0 8.0 0.00 0.00 0.00 53 1021.4
20260903115559 78 351 2.0 8.0 0.00 0.00 0.00 52 1021.5
20260903114559 78 46 2.0 6.0 0.00 0.00 0.00 52 1021.5
20260903113559 78 353 3.0 11.0 0.00 0.00 0.00 52 1021.5
20260903112642 77 332 3.0 10.0 0.00 0.00 0.00 53 1021.5
20260903111600 78 210 3.0 11.0 0.00 0.00 0.00 53 1021.5
20260903110600 78 118 2.0 8.0 0.00 0.00 0.00 54 1021.6
20260903105601 77 67 3.0 10.0 0.00 0.00 0.00 54 1021.8
20260903104602 77 229 3.0 7.0 0.00 0.00 0.00 56 1021.8
20260903103623 76 313 3.0 8.0 0.00 0.00 0.00 57 1021.6
20260903102602 77 174 3.0 8.0 0.00 0.00 0.00 54 1021.7
20260903101603 77 186 2.0 9.0 0.00 0.00 0.00 56 1021.8
20260903100603 76 155 2.0 5.0 0.00 0.00 0.00 57 1022.1
20260903095605 77 71 2.0 8.0 0.00 0.00 0.00 57 1022.1
20260903094604 77 39 1.0 3.0 0.00 0.00 0.00 57 1022.4
20260903093604 76 145 2.0 5.0 0.00 0.00 0.00 58 1022.4
20260903092605 75 56 2.0 9.0 0.00 0.00 0.00 58 1022.4
20260903091605 75 213 3.0 8.0 0.00 0.00 0.00 58 1022.4
20260903090606 75 150 2.0 6.0 0.00 0.00 0.00 59 1022.3
20260903085606 74 282 2.0 6.0 0.00 0.00 0.00 60 1022.3
20260903084606 74 249 3.0 6.0 0.00 0.00 0.00 59 1022.4
20260903083607 75 169 2.0 6.0 0.00 0.00 0.00 59 1022.3
20260903082607 74 68 1.0 3.0 0.00 0.00 0.00 61 1022.2
20260903081608 73 199 2.0 5.0 0.00 0.00 0.00 63 1022.3